When you browse on this site, cookies collect data to enhance your experience and personalize the content and advertising you see.
Visit our Privacy Policy to learn more. By continuing to use the site, you agree to this use of cookies and data.

Météo par heure à Detomlya

Ce jour, 10 Juillet, Vendredi

Heure Température Précipitation Vent Pression Humidité
00:00 +12°C° 0 mm 3 m/s 748 mmHg 88%
01:00 +12°C° 0 mm 3 m/s 748 mmHg 88%
02:00 +11°C° 0 mm 3 m/s 748 mmHg 89%
03:00 +12°C° 0 mm 4 m/s 747 mmHg 88%
04:00 +13°C° 0 mm 4 m/s 747 mmHg 86%
05:00 +13°C° 0 mm 4 m/s 746 mmHg 85%
06:00 +14°C° 0.3 mm 5 m/s 746 mmHg 87%
07:00 +14°C° 0.3 mm 5 m/s 745 mmHg 90%
08:00 +15°C° 0.3 mm 6 m/s 745 mmHg 92%
09:00 +16°C° 0 mm 6 m/s 745 mmHg 91%
10:00 +17°C° 0 mm 5 m/s 745 mmHg 90%
11:00 +19°C° 0 mm 5 m/s 745 mmHg 89%
12:00 +20°C° 0.8 mm 6 m/s 745 mmHg 88%
13:00 +21°C° 0.8 mm 6 m/s 745 mmHg 86%
14:00 +22°C° 0.8 mm 6 m/s 745 mmHg 85%
15:00 +22°C° 0.7 mm 6 m/s 745 mmHg 85%
16:00 +22°C° 0.7 mm 5 m/s 745 mmHg 85%
17:00 +23°C° 0.7 mm 5 m/s 745 mmHg 85%
18:00 +22°C° 0.5 mm 4 m/s 745 mmHg 88%
19:00 +21°C° 0.5 mm 3 m/s 745 mmHg 90%
20:00 +20°C° 0.5 mm 3 m/s 745 mmHg 92%
21:00 +20°C° 0.3 mm 3 m/s 745 mmHg 93%
22:00 +20°C° 0.3 mm 3 m/s 745 mmHg 94%
23:00 +19°C° 0.3 mm 4 m/s 745 mmHg 95%

Demain, 11 Juillet, Samedi

Heure Température Précipitation Vent Pression Humidité
00:00 +19°C° 0.3 mm 4 m/s 745 mmHg 94%
01:00 +20°C° 0.3 mm 5 m/s 745 mmHg 94%
02:00 +20°C° 0.3 mm 5 m/s 744 mmHg 93%
03:00 +20°C° 0.4 mm 5 m/s 745 mmHg 94%
04:00 +19°C° 0.4 mm 5 m/s 745 mmHg 95%
05:00 +19°C° 0.4 mm 5 m/s 745 mmHg 96%
06:00 +19°C° 0.3 mm 5 m/s 746 mmHg 93%
07:00 +19°C° 0.3 mm 5 m/s 746 mmHg 90%
08:00 +19°C° 0.3 mm 5 m/s 747 mmHg 87%
09:00 +19°C° 0 mm 4 m/s 747 mmHg 82%
10:00 +19°C° 0 mm 4 m/s 748 mmHg 77%
11:00 +20°C° 0 mm 4 m/s 748 mmHg 72%
12:00 +20°C° 0 mm 4 m/s 749 mmHg 69%
13:00 +21°C° 0 mm 3 m/s 749 mmHg 66%
14:00 +21°C° 0 mm 3 m/s 749 mmHg 63%
15:00 +20°C° 0 mm 3 m/s 749 mmHg 68%
16:00 +19°C° 0 mm 3 m/s 749 mmHg 72%
17:00 +18°C° 0 mm 3 m/s 749 mmHg 76%
18:00 +17°C° 0 mm 3 m/s 750 mmHg 76%
19:00 +17°C° 0 mm 3 m/s 750 mmHg 76%
20:00 +16°C° 0 mm 3 m/s 750 mmHg 76%
21:00 +14°C° 0.2 mm 3 m/s 750 mmHg 81%
22:00 +13°C° 0.2 mm 3 m/s 751 mmHg 86%
23:00 +13°C° 0.2 mm 3 m/s 751 mmHg 91%

Après-demain, 12 Juillet, Dimanche

Heure Température Précipitation Vent Pression Humidité
00:00 +12°C° 0.1 mm 3 m/s 751 mmHg 90%
01:00 +12°C° 0.1 mm 3 m/s 751 mmHg 90%
02:00 +12°C° 0.1 mm 3 m/s 751 mmHg 89%
03:00 +12°C° 0.4 mm 2 m/s 751 mmHg 91%
04:00 +12°C° 0.4 mm 2 m/s 751 mmHg 93%
05:00 +12°C° 0.4 mm 2 m/s 751 mmHg 95%
06:00 +12°C° 0.9 mm 2 m/s 751 mmHg 95%
07:00 +12°C° 0.9 mm 2 m/s 752 mmHg 95%
08:00 +12°C° 0.9 mm 1 m/s 752 mmHg 95%
09:00 +13°C° 0.8 mm 1 m/s 752 mmHg 93%
10:00 +13°C° 0.8 mm 1 m/s 752 mmHg 90%
11:00 +14°C° 0.8 mm 1 m/s 752 mmHg 87%
12:00 +15°C° 0.1 mm 2 m/s 752 mmHg 80%
13:00 +16°C° 0.1 mm 2 m/s 752 mmHg 73%
14:00 +17°C° 0.1 mm 2 m/s 752 mmHg 65%
15:00 +17°C° 0 mm 2 m/s 752 mmHg 66%
16:00 +18°C° 0 mm 2 m/s 751 mmHg 67%
17:00 +18°C° 0 mm 2 m/s 751 mmHg 68%
18:00 +17°C° 0 mm 2 m/s 751 mmHg 73%
19:00 +16°C° 0 mm 2 m/s 751 mmHg 79%
20:00 +15°C° 0 mm 1 m/s 751 mmHg 84%
21:00 +15°C° 0.1 mm 2 m/s 751 mmHg 87%
22:00 +14°C° 0.1 mm 2 m/s 751 mmHg 89%
23:00 +12°C° 0.1 mm 3 m/s 751 mmHg 92%

13 Juillet, Lundi

Heure Température Précipitation Vent Pression Humidité
00:00 +12°C° 0 mm 3 m/s 751 mmHg 92%
01:00 +11°C° 0 mm 3 m/s 751 mmHg 92%
02:00 +11°C° 0 mm 3 m/s 751 mmHg 92%
03:00 +10°C° 0 mm 3 m/s 751 mmHg 92%
04:00 +10°C° 0 mm 3 m/s 751 mmHg 92%
05:00 +9°C° 0 mm 3 m/s 751 mmHg 93%
06:00 +11°C° 0 mm 3 m/s 751 mmHg 89%
07:00 +12°C° 0 mm 3 m/s 751 mmHg 85%
08:00 +13°C° 0 mm 3 m/s 751 mmHg 81%
09:00 +14°C° 0 mm 3 m/s 750 mmHg 76%
10:00 +17°C° 0 mm 3 m/s 750 mmHg 70%
11:00 +18°C° 0 mm 3 m/s 750 mmHg 64%
12:00 +18°C° 0 mm 3 m/s 750 mmHg 63%
13:00 +18°C° 0 mm 3 m/s 750 mmHg 62%
14:00 +19°C° 0 mm 3 m/s 749 mmHg 61%
15:00 +19°C° 0 mm 3 m/s 749 mmHg 61%
16:00 +19°C° 0 mm 3 m/s 749 mmHg 61%
17:00 +19°C° 0 mm 3 m/s 748 mmHg 60%
18:00 +18°C° 0 mm 2 m/s 748 mmHg 66%
19:00 +17°C° 0 mm 2 m/s 748 mmHg 72%
20:00 +16°C° 0 mm 2 m/s 748 mmHg 79%
21:00 +15°C° 0 mm 2 m/s 748 mmHg 81%
22:00 +14°C° 0 mm 2 m/s 748 mmHg 83%
23:00 +13°C° 0 mm 2 m/s 748 mmHg 85%

14 Juillet, Mardi

Heure Température Précipitation Vent Pression Humidité
00:00 +12°C° 0 mm 2 m/s 748 mmHg 87%
01:00 +12°C° 0 mm 2 m/s 748 mmHg 89%
02:00 +10°C° 0 mm 2 m/s 748 mmHg 90%
03:00 +10°C° 0 mm 2 m/s 748 mmHg 91%
04:00 +10°C° 0 mm 2 m/s 748 mmHg 92%
05:00 +10°C° 0 mm 2 m/s 748 mmHg 93%
06:00 +13°C° 0 mm 2 m/s 748 mmHg 89%
07:00 +14°C° 0 mm 3 m/s 748 mmHg 84%
08:00 +17°C° 0 mm 3 m/s 748 mmHg 79%
09:00 +18°C° 0 mm 3 m/s 748 mmHg 74%
10:00 +20°C° 0 mm 4 m/s 748 mmHg 68%
11:00 +21°C° 0 mm 4 m/s 748 mmHg 62%
12:00 +21°C° 0 mm 4 m/s 747 mmHg 60%
13:00 +22°C° 0 mm 4 m/s 747 mmHg 59%
14:00 +22°C° 0 mm 4 m/s 747 mmHg 58%
15:00 +22°C° 0.2 mm 4 m/s 747 mmHg 62%
16:00 +21°C° 0.2 mm 4 m/s 747 mmHg 66%
17:00 +21°C° 0.2 mm 4 m/s 746 mmHg 70%
18:00 +19°C° 0.1 mm 3 m/s 746 mmHg 75%
19:00 +18°C° 0.1 mm 3 m/s 747 mmHg 79%
20:00 +17°C° 0.1 mm 2 m/s 747 mmHg 84%
21:00 +16°C° 0 mm 2 m/s 747 mmHg 85%
22:00 +14°C° 0 mm 2 m/s 747 mmHg 87%
23:00 +13°C° 0 mm 2 m/s 747 mmHg 88%

15 Juillet, Mercredi

Heure Température Précipitation Vent Pression Humidité
00:00 +13°C° 0 mm 2 m/s 747 mmHg 89%
01:00 +12°C° 0 mm 2 m/s 747 mmHg 90%
02:00 +12°C° 0 mm 2 m/s 747 mmHg 91%
03:00 +10°C° 0 mm 2 m/s 747 mmHg 91%
04:00 +10°C° 0 mm 2 m/s 747 mmHg 91%
05:00 +10°C° 0 mm 2 m/s 747 mmHg 91%
06:00 +13°C° 0 mm 2 m/s 747 mmHg 85%
07:00 +14°C° 0 mm 2 m/s 747 mmHg 80%
08:00 +16°C° 0 mm 3 m/s 747 mmHg 75%
09:00 +17°C° 0 mm 3 m/s 747 mmHg 69%
10:00 +19°C° 0 mm 3 m/s 747 mmHg 63%
11:00 +20°C° 0 mm 3 m/s 747 mmHg 57%
12:00 +21°C° 0 mm 3 m/s 747 mmHg 56%
13:00 +21°C° 0 mm 3 m/s 747 mmHg 55%
14:00 +22°C° 0 mm 3 m/s 747 mmHg 54%
15:00 +22°C° 0 mm 3 m/s 746 mmHg 56%
16:00 +21°C° 0 mm 3 m/s 746 mmHg 59%
17:00 +21°C° 0 mm 3 m/s 746 mmHg 61%
18:00 +20°C° 0 mm 2 m/s 746 mmHg 67%
19:00 +18°C° 0 mm 2 m/s 746 mmHg 73%
20:00 +18°C° 0 mm 1 m/s 746 mmHg 79%
21:00 +16°C° 0 mm 1 m/s 746 mmHg 80%
22:00 +15°C° 0 mm 1 m/s 746 mmHg 82%
23:00 +12°C° 0 mm 0 m/s 746 mmHg 83%
Voir plus